ELEKTRO-L 2

Last updated on Tue Sep 22 2026 00:02:53 GMT+0000 (Coordinated Universal Time)

1 41105U 15074A 26264.20116273 -.00000117 00000+0 00000+0 0 9998 2 41105 6.9292 69.3028 0001678 194.5165 154.1875 1.00272588 39468
UTC large
Height (km)
Speed (km/s)
/
Latitude / Longitude
Inclination (degrees)
Orbital Period (minutes)
Azimuth
Elevation
Range (km)
Doppler Factor

Next 0 passes for location: London (51.5072 / 0.1276)

No passes found over London.
ELEKTRO-L 2